Location: Deuil
(48.9767°N, 2.3272°E)
Time: 18:06:29
(UTC+00:00)

FENGYUN 1C DEB - Visible Passes

Search period start: 11 August 2022 00:00
Search period end: 21 August 2022 00:00
Orbit: 815 x 868 km, 99.3° (Epoch: 08 July)

Date Brightness Start Highest point End Pass type
(mag) Time Alt. Az. Time Alt. Az. Time Alt. Az.
11 Aug ? 00:46:59 10° NNW 00:50:18 17° NW 00:53:30 10° W visible
11 Aug ? 21:12:32 10° ENE 21:14:48 12° E 21:15:08 12° E visible
11 Aug ? 22:50:40 10° NNE 22:56:11 78° ESE 22:56:55 66° SSE visible
12 Aug ? 00:32:06 10° N 00:36:02 21° NW 00:38:44 14° W visible
12 Aug ? 22:36:14 10° NNE 22:41:40 60° ESE 22:42:09 58° SE visible
13 Aug ? 00:17:20 10° N 00:21:44 25° WNW 00:23:57 20° W visible
13 Aug ? 22:21:51 10° NNE 22:27:07 46° E 22:27:22 46° ESE visible
14 Aug ? 00:02:37 10° N 00:07:24 32° WNW 00:09:10 26° W visible
14 Aug ? 22:07:32 10° NNE 22:12:32 35° E 22:12:35 35° E visible
14 Aug ? 23:47:57 10° N 23:53:03 40° WNW 23:54:22 34° W visible
15 Aug ? 21:53:19 10° NE 21:57:47 27° E 21:57:47 27° E visible
15 Aug ? 23:33:21 10° N 23:38:39 51° WNW 23:39:35 46° W visible
16 Aug ? 01:16:42 10° NNW 01:17:53 11° NW 01:19:05 10° WNW visible
16 Aug ? 21:39:12 10° NE 21:42:59 21° E 21:42:59 21° E visible
16 Aug ? 23:18:47 10° N 23:24:13 66° WNW 23:24:47 61° WSW visible
17 Aug ? 01:01:07 10° NNW 01:03:40 14° NW 01:06:13 10° WNW visible
17 Aug ? 21:25:19 10° NE 21:28:11 16° E 21:28:11 16° E visible
17 Aug ? 23:04:16 10° NNE 23:09:45 85° WNW 23:09:59 81° SW visible
18 Aug ? 00:46:03 10° NNW 00:49:25 17° NW 00:51:48 13° W visible
18 Aug ? 21:11:56 10° ENE 21:13:24 12° E 21:13:24 12° E visible
18 Aug ? 22:49:46 10° NNE 22:55:11 75° E 22:55:11 75° E visible
19 Aug ? 00:31:09 10° N 00:35:07 21° NW 00:37:00 18° W visible
19 Aug ? 22:35:20 10° NNE 22:40:23 56° E 22:40:23 56° E visible
20 Aug ? 00:16:23 10° N 00:20:48 26° WNW 00:22:11 23° W visible
20 Aug ? 22:20:56 10° NNE 22:25:34 42° E 22:25:34 42° E visible
